Location: *
(40.4000°N, 15.1200°E)
Time: 17:00:01
(UTC+00:00)

Cosmos 1461 - Pass Details

Date: 09 April 2020
Orbit: 506 x 660 km, 65.0° (Epoch: 05 June)

Event Time Altitude Azimuth Distance (km) Brightness Sun altitude
Rises 18:58:28 0° 327° (NNW) 2,905 7.5 -16.3°
Reaches altitude 10° 19:00:43 10° 327° (NNW) 2,016 6.6 -16.7°
Maximum altitude 19:05:19 85° 242° (WSW) 654 3.1 -17.4°
Enters shadow 19:07:43 29° 153° (SSE) 1,195 4.1 -17.8°
